Regional Weather Roundup
Issued by NWS Little Rock, AR

Home | Current Version | Previous Version | Graphics & Text | Print | Product List | Glossary On
Versions: 1 2 3 4 5 6 7 8 9 10 11 12 13 14 15 16 17 18 19 20 21 22 23 24 25 26 27 28 29 30 31 32 33 34 35 36 37 38 39 40 41 42 43 44 45 46 47 48 49 50
286
ASUS44 KLZK 230012
RWRLZK

WEATHER ROUNDUP FOR ARKANSAS
NATIONAL WEATHER SERVICE LITTLE ROCK AR
700 PM CDT MON MAY 22 2017

NOTE: "FAIR" INDICATES FEW OR NO CLOUDS BELOW 12,000 FEET WITH NO
SIGNIFICANT WEATHER AND/OR OBSTRUCTIONS TO VISIBILITY.

ARZ001-003-010-029-230100-
NORTHWEST ARKANSAS

CITY           SKY/WX    TMP DP  RH WIND       PRES   REMARKS
FAYETTEVILLE   CLOUDY    70  53  54 S7        29.96F
6HR MIN TEMP:  70; 6HR MAX TEMP:  75;

FORT SMITH     CLOUDY    77  53  43 E9        29.92F
6HR MIN TEMP:  76; 6HR MAX TEMP:  80;

HARRISON       PTSUNNY   70  49  47 E7        29.96F
6HR MIN TEMP:  70; 6HR MAX TEMP:  74;

BENTONVILLE    PTSUNNY   72  50  46 CALM      29.95F
6HR MIN TEMP:  72; 6HR MAX TEMP:  75;

ROGERS         CLOUDY    71  51  49 SW6       29.96F
6HR MIN TEMP:  71; 6HR MAX TEMP:  75; 6HR PCP:  0.04;

SILOAM SPGS    MOSUNNY   70  52  52 S6        29.94F
6HR MIN TEMP:  70; 6HR MAX TEMP:  75;

HIGHFILL       CLOUDY    71  53  52 CALM      29.95F
6HR MIN TEMP:  71; 6HR MAX TEMP:  76;

SPRINGDALE     PTSUNNY   72  48  43 W8        29.97F
$$

ARZ004-005-016-230100-
NORTH CENTRAL ARKANSAS

CITY           SKY/WX    TMP DP  RH WIND       PRES   REMARKS
BATESVILLE     CLOUDY    72  52  49 SE8       29.97S
6HR MIN TEMP:  72; 6HR MAX TEMP:  75;

FLIPPIN        SUNNY     73  48  40 E3        29.93F
6HR MIN TEMP:  72; 6HR MAX TEMP:  75;

MTN HOME       MOSUNNY   72  50  45 S6        29.94F
6HR MIN TEMP:  70; 6HR MAX TEMP:  74;

$$

ARZ040-041-230100-
WEST CENTRAL ARKANSAS

CITY           SKY/WX    TMP DP  RH WIND       PRES   REMARKS
MENA           SUNNY     73  54  49 SE5       29.96S
MOUNT IDA      CLOUDY    70  52  52 VRB5      29.94F
6HR MIN TEMP:  70; 6HR MAX TEMP:  78;

$$

ARZ009-017-025-026-028-230100-
NORTHEAST ARKANSAS

CITY           SKY/WX    TMP DP  RH WIND       PRES   REMARKS
CORNING        LGT RAIN  73  50  43 E6        29.95
JONESBORO      PTSUNNY   71  51  49 S7        29.96S
6HR MIN TEMP:  71; 6HR MAX TEMP:  76;

NEWPORT        CLOUDY    69  54  58 S9        29.97S
6HR MIN TEMP:  69; 6HR MAX TEMP:  74;

WALNUT RIDGE   CLOUDY    73  48  40 CALM      29.96R
6HR MIN TEMP:  72; 6HR MAX TEMP:  75;

BLYTHEVILLE    CLOUDY    71  54  54 E3        29.96F
6HR MIN TEMP:  71; 6HR MAX TEMP:  74;

$$

ARZ022-023-033-042-044-230100-
CENTRAL ARKANSAS

CITY           SKY/WX    TMP DP  RH WIND       PRES   REMARKS
LITTLE ROCK    CLOUDY    67  55  65 CALM      29.97F
6HR MIN TEMP:  67; 6HR MAX TEMP:  70;

N LITTLE ROCK    N/A     67  56  68 CALM      29.97F
6HR MIN TEMP:  67; 6HR MAX TEMP:  71;

JACKSONVILLE   CLOUDY    68  54  61 CALM      29.97F
6HR MIN TEMP:  68; 6HR MAX TEMP:  74;

CONWAY           N/A     70  54  56 S6        29.96S
SEARCY         CLOUDY    67  58  72 CALM      29.98F
6HR MIN TEMP:  67; 6HR MAX TEMP:  75;

HOT SPRINGS    CLOUDY    68  55  63 S5        29.97F
6HR MIN TEMP:  68; 6HR MAX TEMP:  75;

RUSSELLVILLE   SUNNY     72  53  51 SE6       29.94F
6HR MIN TEMP:  72; 6HR MAX TEMP:  77;

CLINTON        FAIR      73  52  46 E3        29.94F
$$

ARZ036-230100-
EAST ARKANSAS

CITY           SKY/WX    TMP DP  RH WIND       PRES   REMARKS
WEST MEMPHIS   CLOUDY    69  58  67 S3        29.95S
6HR MIN TEMP:  68; 6HR MAX TEMP:  73;

$$

ARZ050-053-066-070-073-230100-
SOUTHWEST ARKANSAS

CITY           SKY/WX    TMP DP  RH WIND       PRES   REMARKS
ARKADELPHIA      N/A     68  59  73 CALM      29.97F
6HR MIN TEMP:  68; 6HR MAX TEMP:  71;

CAMDEN         CLOUDY    64  57  77 CALM      29.97S
TEXARKANA      CLOUDY    63  60  90 CALM      29.97F
6HR MIN TEMP:  63; 6HR MAX TEMP:  68;

EL DORADO      CLOUDY    64  61  90 N3        29.96F
6HR MIN TEMP:  61; 6HR MAX TEMP:  64; 6HR PCP:  0.18;

DE QUEEN       CLOUDY    70  56  61 SE6       29.94F
6HR MIN TEMP:  70; 6HR MAX TEMP:  78;

$$

ARZ056-057-069-230100-
SOUTHEAST ARKANSAS

CITY           SKY/WX    TMP DP  RH WIND       PRES   REMARKS
PINE BLUFF     CLOUDY    66  57  72 CALM      29.97S
6HR MIN TEMP:  66; 6HR MAX TEMP:  68; 6HR PCP: TRACE;

STUTTGART      CLOUDY    70  46  43 W3        29.97S
6HR MIN TEMP:  68; 6HR MAX TEMP:  70;

MONTICELLO     CLOUDY    63  61  93 NE5       29.95F
6HR MIN TEMP:  63; 6HR MAX TEMP:  65; 6HR PCP:  0.07;


$$






USA.gov is the U.S. government's official web portal to all federal, state and local government web resources and services.